Regional Weather Roundup
Issued by NWS Sterling, VA

Home | Current Version | Previous Version | Graphics & Text | Print | Product List | Glossary On
Versions: 1 2 3 4 5 6 7 8 9 10 11 12 13 14 15 16 17 18 19 20 21 22 23 24 25 26 27
000
ASUS41 KLWX 282311
RWRLWX

REGIONAL WEATHER ROUNDUP
NATIONAL WEATHER SERVICE BALTIMORE MD/WASHINGTON DC
700 PM EDT TUE MAR 28 2017

Note: "FAIR" indicates few or no clouds below 12,000 feet
with no significant weather and/or obstructions to visibility.
 TC=TEMPERATURE CELSIUS

 * =Non NWS site. Station does not report precipitation (e.g. rain,
    snow, etc.), thunder, or fog.

DCZ001-MDZ009-015-VAZ040>042-051-053>054-290000-
WASHINGTON METRO

CITY           SKY/WX    TMP DP  RH WIND       PRES   REMARKS
WASHINGTON NAT CLOUDY    70  54  56 NW12      29.86R
DULLES         CLOUDY    66  57  72 N6        29.87R
ANDREWS AFB    CLOUDY    69  52  55 NW8       29.85R
FT BELVOIR     MOCLDY    69  55  60 W3        29.86R
QUANTICO       MOCLDY    65  62  90 NW3       29.86R
COLLEGE PARK*  MOCLDY    68  53  58 NW7       29.86R
LEESBURG*      MOCLDY    66  61  82 CALM      29.88R
MANASSAS*        N/A    N/A N/A N/A NW3       29.87R

$$

MDZ006>007-011-014-290000-
BALTIMORE METRO

CITY           SKY/WX    TMP DP  RH WIND       PRES   REMARKS
BWI AIRPORT    MOCLDY    67  55  65 NW13      29.85R
MD SCIENCE CTR   N/A     68  54  60 MISG      29.86R
MARTIN STATE   MOCLDY    66  59  77 N8        29.86R
ANNAPOLIS      MOCLDY    64  56  75 NE5       29.85R
FORT MEADE*    MOCLDY    66  54  63 CALM      29.88R

$$

MDZ012-015-019>023-290000-
MARYLAND EASTERN SHORE

CITY           SKY/WX    TMP DP  RH WIND       PRES   REMARKS
OCEAN CITY     MOCLDY    60  54  80 CALM      29.84R
SALISBURY      MOCLDY    67  59  75 W8        29.84R
BAY BRIDGE AP* MOCLDY    63  55  77 N6        29.85R HAZE
CAMBRIDGE*     CLOUDY    64  59  82 CALM      29.85R
EASTON*        PTCLDY    66  55  68 N7        29.88R

$$

MDZ017>025-290000-
SOUTHERN MARYLAND

CITY           SKY/WX    TMP DP  RH WIND       PRES   REMARKS
PATUXENT RIVER MOCLDY    61  61 100 CALM      29.84R
ST INIGOES     MOCLDY    66  58  75 SE5       29.84R
LEONARDTOWN*   CLOUDY    63  59  88 CALM      29.87R

$$

MDZ003>005-290000-
NORTH CENTRAL MARYLAND

CITY           SKY/WX    TMP DP  RH WIND       PRES   REMARKS
FREDERICK*     MOCLDY    66  61  82 N7        29.90R
HAGERSTOWN APT LGT RAIN  62  57  83 N6        29.88R
WESTMINSTER*   CLOUDY    61  57  88 N5        29.89R

$$

MDZ501>502-290000-
WESTERN MARYLAND

CITY           SKY/WX    TMP DP  RH WIND       PRES   REMARKS
OAKLAND*       FOG       50  50 100 NW5       29.96R VSB<1/4
CUMBERLAND*    CLOUDY    64  55  72 NW5       29.95R

$$

VAZ025>031-290000-
SHENANDOAH VALLEY

CITY           SKY/WX    TMP DP  RH WIND       PRES   REMARKS
WINCHESTER*    CLOUDY    63  55  77 NW6       29.88R
FRONT ROYAL*   CLOUDY    61  59  94 CALM      29.88R
LURAY*         CLOUDY    66  57  72 S3        29.88R
NEW MARKET*    CLOUDY    67  51  56 CALM      29.89R
STAUNTON*      CLOUDY    64  55  72 CALM      29.91R
WAYNESBORO*    CLOUDY    66  50  55 NW9G16    29.91R

$$

WVZ021-048>050-054>055-290000-
EASTERN WEST VIRGINIA PANHANDLE

CITY           SKY/WX    TMP DP  RH WIND       PRES   REMARKS
MARTINSBURG    HVY RAIN  61  57  87 NW9G20    29.89R VSB 1/2
PETERSBURG*    CLOUDY    66  54  64 W10       29.92R

$$

VAZ036>039-050-290000-
CENTRAL FOOTHILLS

CITY           SKY/WX    TMP DP  RH WIND       PRES   REMARKS
CHARLOTTESVILL CLOUDY    66  57  72 E3        29.87R
CULPEPER*      CLOUDY    66  63  89 CALM      29.89R
ORANGE*        LGT RAIN  61  59  94 CALM      29.89S
GORDONSVILLE*  CLOUDY    61  60  95 CALM      29.87R
WARRENTON*     CLOUDY    66  59  79 CALM      29.87R

$$

VAZ055>057-290000-
NORTH AND CENTRAL PIEDMONT

CITY           SKY/WX    TMP DP  RH WIND       PRES   REMARKS
FREDERICKSBRG* MOCLDY    70  58  65 NW3       29.86R
STAFFORD*      CLOUDY    66  61  81 CALM      29.90R

$$

NCZ024-NYZ072-PAZ021-071-VAZ022-071-290000-
OTHER REGIONAL OBSERVATIONS

CITY           SKY/WX    TMP DP  RH WIND       PRES   REMARKS
NEW YORK CITY  LGT RAIN  41  39  93 NE10      29.93R FOG
PHILADELPHIA   DRIZZLE   51  49  92 N10G23    29.88R FOG
PITTSBURGH     MOCLDY    55  48  77 NW17      29.99R
ROANOKE        CLOUDY    68  49  50 W16G24    29.94R
RICHMOND       MOCLDY    67  59  75 SW3       29.85R
RALEIGH        MOCLDY    74  53  48 NW3       29.88R

$$

ANZ530>537-290000-
MARINE OBSERVATIONS

STATION/POSITION TIME  TEMP    WIND        PRES
                       AIR SEA DIR/SP/G
                 (UTC) (F)     (DEG/KT/KT) (MB)
THOMAS PT LIGHT  2300   62 47   30/  8/  9   N/A
BALT KEY BRIDGE  2248   57     150/  6/  6 1010.7R
COVE POINT       2248   61     160/  4/  4 1011.2R
LEWISETTA        2248   60 53   90/  4/  5 1010.7R
SOLOMONS ISLAND  2248   58 48   CALM  /  2   N/A
PINEY POINT      2242          200/  2/  2   N/A

$$





USA.gov is the U.S. government's official web portal to all federal, state and local government web resources and services.